Terminal Aerodrome Forecast
Issued by NWS Austin/San Antonio, TX

Home | Current Version | Previous Version | Text Only | Print | Product List | Glossary On
Versions: 1 2 3 4 5 6 7 8 9 10 11 12 13 14 15 16 17 18 19 20 21
252
FTUS44 KEWX 251127
TAFSAT
TAF
KSAT 251127Z 2512/2618 02005KT P6SM BKN015
     FM251700 08010KT P6SM VCSH BKN035
     FM260200 08005KT P6SM SCT100 BKN250
     FM260600 08005KT P6SM BKN015
     FM261500 08005KT P6SM BKN025=

USA.gov is the U.S. government's official web portal to all federal, state and local government web resources and services.